Location: Icefog Observatory
(64.9000°N, 147.4000°W)
Time: 20:48:16
(UTC-09:00)

ACS3 Solar Sail - Visible Passes

Search period start: 08 November 2024 00:00
Search period end: 18 November 2024 00:00
Orbit: 962 x 1018 km, 97.5° (Epoch: 08 November)

Date Brightness Start Highest point End Pass type
(mag) Time Alt. Az. Time Alt. Az. Time Alt. Az.
08 Nov 4.0 07:51:56 10° NNE 07:57:08 27° E 08:02:16 10° SE visible
08 Nov 2.3 18:08:09 10° ESE 18:13:57 40° NE 18:19:42 10° NNW visible
08 Nov 1.9 19:52:03 15° SSE 19:57:24 82° WSW 20:03:42 10° NNW visible
08 Nov 3.5 21:37:01 11° SW 21:42:04 28° W 21:47:25 10° NNW visible
09 Nov 4.6 06:38:42 10° NE 06:41:03 12° ENE 06:43:23 10° E visible
09 Nov 2.9 16:55:24 10° E 17:00:16 24° NNE 17:05:06 10° NNW visible
09 Nov 2.0 18:36:55 10° SE 18:42:59 52° ENE 18:49:00 10° NNW visible
09 Nov 2.3 20:21:41 16° S 20:26:45 61° W 20:32:58 10° NNW visible
09 Nov 4.0 22:07:11 10° SW 22:11:48 21° WNW 22:16:25 10° NNW visible
10 Nov 4.4 07:07:04 10° NNE 07:10:59 17° ENE 07:14:52 10° ESE visible
10 Nov 2.7 17:23:46 10° E 17:29:02 29° NE 17:34:15 10° NNW visible
10 Nov 1.8 19:06:17 12° SE 19:12:01 68° ENE 19:18:13 10° NNW visible
10 Nov 2.8 20:51:15 15° SSW 20:56:08 44° W 21:02:06 10° NNW visible
10 Nov 4.3 22:38:07 10° WSW 22:41:37 15° WNW 22:45:05 10° NW visible
11 Nov 4.2 07:35:50 10° NNE 07:40:42 23° E 07:45:29 10° SE visible
11 Nov 2.4 17:52:11 10° ESE 17:57:48 36° NE 18:03:22 10° NNW visible
11 Nov 1.8 19:35:46 15° SSE 19:41:05 88° ENE 19:47:21 10° NNW visible
11 Nov 3.3 21:20:43 13° SW 21:25:33 33° W 21:31:07 10° NNW visible
11 Nov 4.6 23:10:12 10° WNW 23:11:27 11° WNW 23:12:43 10° NW visible
12 Nov 4.9 06:23:45 10° NE 06:24:16 10° ENE 06:24:47 10° ENE visible
12 Nov 3.7 08:04:44 10° NNE 08:10:13 32° E 08:15:37 10° SSE visible
12 Nov 2.1 18:20:39 10° ESE 18:26:34 46° NE 18:32:26 10° NNW visible
12 Nov 2.0 20:05:10 17° S 20:10:10 70° WSW 20:16:24 10° NNW visible
12 Nov 3.8 21:50:08 10° SW 21:55:02 24° W 21:59:59 10° NNW visible
13 Nov 4.5 06:50:46 10° NE 06:54:02 14° ENE 06:57:16 10° E visible
13 Nov 2.8 17:07:28 10° E 17:12:31 27° NE 17:17:31 10° NNW visible
13 Nov 1.8 18:49:33 12° SE 18:55:21 59° ENE 19:01:26 10° NNW visible
13 Nov 2.5 20:34:29 17° SSW 20:39:16 52° W 20:45:21 10° NNW visible
13 Nov 4.1 22:20:28 10° WSW 22:24:32 18° WNW 22:28:34 10° NNW visible
14 Nov 4.3 07:19:09 10° NNE 07:23:35 20° ENE 07:27:57 10° ESE visible
14 Nov 2.5 17:35:36 10° ESE 17:41:01 32° NE 17:46:24 10° NNW visible
14 Nov 1.7 19:18:47 15° SSE 19:24:09 78° ENE 19:30:21 10° NNW visible
14 Nov 3.1 21:03:44 15° SSW 21:08:25 38° W 21:14:11 10° NNW visible
14 Nov 4.4 22:51:31 10° W 22:54:05 13° WNW 22:56:39 10° NW visible
15 Nov 3.9 07:47:44 10° NNE 07:52:56 27° E 07:58:03 10° SE visible
15 Nov 2.2 18:03:47 10° ESE 18:09:32 40° NE 18:15:14 10° NNW visible
15 Nov 1.8 19:47:57 17° SSE 19:52:57 81° WSW 19:59:12 10° NNW visible
15 Nov 3.5 21:32:54 12° SW 21:37:36 28° W 21:42:52 10° NNW visible
16 Nov 4.6 06:34:03 10° NE 06:36:23 12° ENE 06:38:42 10° E visible
16 Nov 3.4 08:16:24 10° NNE 08:22:05 37° E 08:27:42 10° SSE visible
16 Nov 2.9 16:50:33 10° E 16:55:22 24° NNE 17:00:09 10° NNW visible
16 Nov 2.0 18:32:06 10° SE 18:38:03 52° ENE 18:44:01 10° NNW visible
16 Nov 2.3 20:17:02 18° S 20:21:48 60° W 20:27:57 10° NNW visible
16 Nov 4.0 22:02:17 10° WSW 22:06:49 21° WNW 22:11:21 10° NNW visible
17 Nov 4.4 07:01:54 10° NNE 07:05:47 17° ENE 07:09:37 10° ESE visible
17 Nov 2.6 17:18:25 10° E 17:23:37 29° NE 17:28:47 10° NNW visible
17 Nov 1.7 19:01:07 14° SE 19:06:35 68° ENE 19:12:43 10° NNW visible
17 Nov 2.8 20:46:03 17° SSW 20:50:40 44° W 20:56:35 10° NNW visible
17 Nov 4.3 22:32:41 10° WSW 22:36:06 15° WNW 22:39:29 10° NW visible
